[[{"header":{"parameterUnit":"m.s-1","parameterCategory":1,"la1":30.2991,"la2":30.254,"lo1":-89.0895,"lo2":-89.0444,"dy":0.0017,"dx":0.0017,"nx":28,"ny":28,"refTime":"2024-06-13T03:00:00:Z","depth":0,"parameterNumber":2,"parameterNumberName":"U-component_of_WINDS"},"data":[0,0,0,0,0,0,0,0,0,0,0,0,0,0,0,0,0,0,0,0,0,0,0,0,0,0,0,0,0,0,0,0,0,0,0,0,0,0,0,0,0,0,0,0,0,0,0,0,0,0,0,0,0,0,0,0,0,0,1.5396,1.5397,0,1.5451,1.5452,1.5453,1.5448,1.5447,1.5447,1.5446,1.5502,1.5504,1.5506,0,0,0,0,0,0,0,0,0,0,0,0,0,1.5286,1.5288,1.5396,1.5397,1.5398,1.5451,1.5452,1.5453,1.5448,1.5447,1.5446,1.5445,1.5501,1.5504,1.5507,0,0,0,0,0,0,0,0,0,0,0,0,0,1.5337,1.5289,1.5396,1.5402,1.5403,1.5451,1.5452,1.5453,1.5449,1.5447,1.5446,1.5445,1.55,1.5504,1.5507,1.5553,0,0,1.5517,1.5519,0,0,0,0,0,0,0,0,1.5334,1.5341,1.54,1.5402,1.5403,1.5442,1.5434,1.5487,1.5449,1.5431,1.5446,1.5444,1.5483,1.5488,1.5501,1.5556,1.5558,1.5518,1.552,1.5521,1.5522,0,0,0,0,0,0,0,1.5331,1.5339,1.5418,1.5401,1.5403,1.5401,1.5407,1.5444,1.5463,1.5433,1.5433,1.5439,1.5483,1.5498,1.5502,1.5559,1.5518,1.5521,1.5523,1.5524,1.5652,1.5653,0,0,0,0,0,0,1.5326,1.5336,1.5416,1.542,1.5365,1.5404,1.5411,1.5431,1.5463,1.5467,1.544,1.5439,1.5492,1.5498,1.5504,1.5559,1.5521,1.5524,1.5526,1.5651,1.5652,1.5654,0,0,0,0,0,0,1.5324,1.5333,1.5414,1.5378,1.5388,1.5408,1.543,1.5432,1.5446,1.5469,1.5472,1.5451,1.5492,1.5499,1.554,1.556,1.5526,1.5529,1.5649,1.5651,1.5653,1.5669,0,0,0,0,0,0,1.532,1.5332,1.535,1.5378,1.539,1.545,1.5431,1.5434,1.5452,1.5451,1.548,1.5483,1.5491,1.5535,1.5544,1.5565,1.5532,1.5648,1.565,1.5653,1.5667,1.5671,1.5675,0,0,0,0,0,1.5316,1.5353,1.5351,1.5361,1.5413,1.5451,1.5458,1.5466,1.5454,1.5472,1.5486,1.5482,1.5557,1.554,1.5549,1.5571,1.5646,1.5649,1.5652,1.5665,1.567,1.5675,0,0,0,0,0,0,1.5328,1.5357,1.5355,1.5402,1.5424,1.5451,1.5474,1.5472,1.5498,1.5496,1.5505,1.5512,1.5553,1.5566,1.5546,1.5616,1.56,1.5605,1.5606,1.5612,1.5616,1.5611,1.5535,0,0,0,0,0,1.5336,1.5365,1.5388,1.5427,1.5438,1.5454,1.5471,1.5475,1.5499,1.5508,1.5525,1.5548,1.5576,1.5595,1.5622,1.5669,1.5674,1.5688,1.5693,1.5696,1.57,1.5724,1.573,1.5664,1.5664,1.5664,0,0,1.5352,1.5372,1.539,1.543,1.5448,1.5477,1.5462,1.5494,1.5515,1.5513,1.5553,1.5566,1.5591,1.5635,1.5655,1.5647,1.5719,1.57,1.5702,1.5705,1.5728,1.5734,1.5739,1.5666,1.5666,1.5665,0,0,1.5397,1.5416,1.5449,1.5467,1.5493,1.5503,1.5511,1.5537,1.5546,1.5586,1.5584,1.5609,1.5659,1.5676,1.5692,1.5741,1.5739,1.575,1.5772,1.5795,1.58,1.5805,1.5821,1.5827,1.5754,1.5754,1.5754,0,1.5415,1.5459,1.5467,1.5498,1.5515,1.5514,1.5547,1.5564,1.5598,1.561,1.5601,1.5661,1.5679,1.5725,1.5737,1.575,1.5759,1.5747,1.5799,1.5804,1.5808,1.5824,1.583,1.5756,1.5755,1.5755,1.5755,0,1.5478,1.5508,1.5532,1.5564,1.5584,1.5617,1.5629,1.5648,1.565,1.5661,1.57,1.5721,1.5751,1.5763,1.5766,1.581,1.5804,1.5797,1.578,1.5815,1.583,1.5836,1.5757,1.5757,1.5756,1.5756,0,0,1.5533,1.5567,1.5576,1.559,1.5618,1.5641,1.5673,1.5703,1.5718,1.5742,1.5768,1.5809,1.5802,1.5819,1.5824,1.5844,1.588,1.5834,1.5835,1.5841,1.5928,1.5932,1.5939,1.5879,1.588,1.5881,1.5925,0,1.5579,1.5635,1.5642,1.5692,1.5719,1.5717,1.5745,1.5765,1.5775,1.5799,1.5811,1.5839,1.5828,1.5839,1.5859,1.5872,1.5898,1.5869,1.5902,1.5903,1.5895,1.5947,1.5953,1.5994,1.5931,1.5932,1.5933,0,1.5642,1.5666,1.5718,1.5741,1.5752,1.5777,1.5804,1.5827,1.5849,1.5855,1.5874,1.5876,1.5907,1.589,1.5933,1.5913,1.5927,1.5935,1.5937,1.594,1.592,1.5951,1.6007,1.6013,1.5943,1.5942,1.5941,0,1.5675,1.572,1.5756,1.5769,1.5797,1.5813,1.5826,1.5847,1.5863,1.5887,1.5897,1.5925,1.5939,1.596,1.5968,1.5955,1.601,1.5994,1.6015,1.6015,1.6027,1.6026,1.6085,1.6037,1.6037,1.6037,1.6037,0,1.5726,1.5757,1.5771,1.5794,1.5828,1.5836,1.587,1.5882,1.59,1.5924,1.5924,1.5947,1.5957,1.5981,1.5988,1.6022,1.6029,1.6034,1.6035,1.6033,1.6032,1.6042,1.6039,1.6039,1.6038,1.6038,1.6038,0,1.5768,1.5779,1.5818,1.5841,1.5847,1.5872,1.5891,1.5912,1.5922,1.5952,1.596,1.5975,1.6002,1.6013,1.6047,1.6052,1.609,1.609,1.6083,1.6083,1.6103,1.6101,1.617,1.6179,1.6126,1.6127,1.6127,0,1.58,1.5824,1.5848,1.5864,1.5877,1.5903,1.592,1.5927,1.5945,1.5971,1.5988,1.6016,1.6038,1.6083,1.6097,1.6122,1.6122,1.6144,1.6126,1.6123,1.6121,1.6119,1.612,1.6148,1.6148,1.6149,1.6149,0,1.5854,1.5858,1.5882,1.5907,1.5927,1.5947,1.5967,1.598,1.5991,1.601,1.6038,1.6055,1.609,1.6117,1.6143,1.6155,1.6154,1.6155,1.6161,1.6159,1.6153,1.6155,1.6091,1.6153,1.6153,1.6152,1.6152,1.6152,1.5891,1.5912,1.5932,1.5958,1.5973,1.5992,1.6012,1.6023,1.6047,1.6075,1.6078,1.6108,1.6128,1.6163,1.6176,1.6199,1.6193,1.6202,1.6204,1.6206,1.6207,1.615,1.6204,1.6204,1.6204,1.6204,1.6204,0,1.5944,1.5957,1.5981,1.6008,1.6028,1.6025,1.6046,1.6063,1.6089,1.6108,1.6129,1.6161,1.6186,1.6202,1.6227,1.6243,1.6242,1.6249,1.6247,1.625,1.6212,1.6203,1.6249,1.6249,1.6249,1.6249,1.6249,1.6249,1.5974,1.6008,1.6014,1.6055,1.6067,1.6096,1.6108,1.6124,1.6139,1.6174,1.6195,1.6205,1.6222,1.6248,1.6271,1.6275,1.6284,1.6291,1.6294,1.6258,1.6253,1.6249,1.6241,1.6293,1.6293,1.633,1.633,1.6331]},{"header":{"parameterUnit":"m.s-1","parameterCategory":1,"la1":30.2991,"la2":30.254,"lo1":-89.0895,"lo2":-89.0444,"dy":0.0017,"dx":0.0017,"nx":28,"ny":28,"refTime":"2024-06-13T03:00:00:Z","depth":0,"parameterNumber":3,"parameterNumberName":"V-component_of_WINDS"},"data":[0,0,0,0,0,0,0,0,0,0,0,0,0,0,0,0,0,0,0,0,0,0,0,0,0,0,0,0,0,0,0,0,0,0,0,0,0,0,0,0,0,0,0,0,0,0,0,0,0,0,0,0,0,0,0,0,0,0,-0.1803,-0.1805,0,-0.1947,-0.1949,-0.195,-0.2022,-0.2022,-0.2022,-0.2022,-0.2172,-0.2176,-0.218,0,0,0,0,0,0,0,0,0,0,0,0,0,-0.1594,-0.1597,-0.1803,-0.1805,-0.1807,-0.1947,-0.1949,-0.1951,-0.2022,-0.2022,-0.2022,-0.2022,-0.2171,-0.2176,-0.218,0,0,0,0,0,0,0,0,0,0,0,0,0,-0.1706,-0.1598,-0.1803,-0.1859,-0.1866,-0.1946,-0.1949,-0.1951,-0.2022,-0.2022,-0.2022,-0.2022,-0.2169,-0.2175,-0.2181,-0.2217,0,0,-0.2199,-0.2202,0,0,0,0,0,0,0,0,-0.1699,-0.1713,-0.1849,-0.1855,-0.1863,-0.1967,-0.193,-0.2041,-0.2022,-0.1963,-0.2022,-0.2022,-0.2104,-0.2115,-0.2142,-0.2224,-0.2231,-0.22,-0.2203,-0.2206,-0.2208,0,0,0,0,0,0,0,-0.1691,-0.1708,-0.186,-0.1851,-0.1859,-0.1878,-0.1894,-0.1951,-0.2032,-0.1968,-0.1973,-0.1989,-0.2108,-0.2136,-0.2146,-0.2233,-0.22,-0.2205,-0.2209,-0.2211,-0.2354,-0.2354,0,0,0,0,0,0,-0.1674,-0.1701,-0.1856,-0.1864,-0.1779,-0.1882,-0.19,-0.1933,-0.2031,-0.2046,-0.1989,-0.1992,-0.2126,-0.2139,-0.2152,-0.2202,-0.2206,-0.2212,-0.2215,-0.2353,-0.2354,-0.2354,0,0,0,0,0,0,-0.1669,-0.1687,-0.185,-0.1784,-0.1806,-0.1886,-0.1923,-0.1936,-0.1965,-0.2047,-0.2062,-0.2003,-0.2127,-0.2144,-0.2201,-0.2208,-0.2214,-0.222,-0.2353,-0.2354,-0.2354,-0.2301,0,0,0,0,0,0,-0.1663,-0.1685,-0.1699,-0.1784,-0.1809,-0.1895,-0.1923,-0.1939,-0.1975,-0.198,-0.2065,-0.2079,-0.2128,-0.2191,-0.2207,-0.2216,-0.2224,-0.2353,-0.2353,-0.2354,-0.2302,-0.2299,-0.2297,0,0,0,0,0,-0.1655,-0.1679,-0.1699,-0.1718,-0.1828,-0.1895,-0.191,-0.1965,-0.1975,-0.199,-0.2043,-0.2076,-0.2204,-0.2197,-0.2214,-0.2226,-0.2353,-0.2353,-0.2354,-0.2304,-0.23,-0.2297,0,0,0,0,0,0,-0.1594,-0.1691,-0.1715,-0.1766,-0.1822,-0.1907,-0.1928,-0.196,-0.2015,-0.2017,-0.2085,-0.2103,-0.2155,-0.2196,-0.2186,-0.2267,-0.2282,-0.2286,-0.2238,-0.2235,-0.2232,-0.2222,-0.2229,0,0,0,0,0,-0.1586,-0.1631,-0.1714,-0.1751,-0.1778,-0.1848,-0.1879,-0.1917,-0.1978,-0.2002,-0.2059,-0.2118,-0.2172,-0.2206,-0.226,-0.2309,-0.2329,-0.2326,-0.2323,-0.232,-0.2323,-0.2353,-0.2353,-0.2356,-0.2356,-0.2356,0,0,-0.157,-0.1629,-0.1654,-0.174,-0.1788,-0.1834,-0.1867,-0.1915,-0.195,-0.201,-0.2067,-0.2111,-0.2181,-0.2234,-0.2261,-0.2271,-0.2327,-0.2321,-0.2318,-0.2323,-0.2354,-0.2353,-0.2353,-0.2356,-0.2356,-0.2356,0,0,-0.1566,-0.1615,-0.1652,-0.1698,-0.177,-0.1816,-0.1825,-0.1906,-0.1937,-0.1995,-0.2041,-0.2085,-0.2176,-0.2224,-0.226,-0.2275,-0.2307,-0.229,-0.2276,-0.2305,-0.2304,-0.2305,-0.2311,-0.2312,-0.2293,-0.2293,-0.2293,0,-0.1538,-0.1609,-0.1667,-0.1712,-0.1749,-0.1804,-0.1842,-0.1886,-0.1971,-0.1996,-0.2005,-0.2121,-0.2172,-0.2238,-0.2241,-0.2269,-0.2282,-0.2281,-0.2299,-0.23,-0.2301,-0.2308,-0.231,-0.229,-0.2291,-0.2291,-0.2291,0,-0.1572,-0.162,-0.1642,-0.1722,-0.1762,-0.1803,-0.1868,-0.1902,-0.1936,-0.1982,-0.2041,-0.2104,-0.2172,-0.2191,-0.2225,-0.2262,-0.2266,-0.2286,-0.2303,-0.2298,-0.2305,-0.2308,-0.2287,-0.2288,-0.2288,-0.2289,0,0,-0.1533,-0.1644,-0.1651,-0.1689,-0.1772,-0.1811,-0.1855,-0.1921,-0.1949,-0.2006,-0.2046,-0.2122,-0.2141,-0.2183,-0.2223,-0.2248,-0.2256,-0.2266,-0.2269,-0.2263,-0.2302,-0.2286,-0.2288,-0.2278,-0.2279,-0.228,-0.2296,0,-0.1541,-0.1622,-0.1675,-0.1736,-0.1782,-0.1835,-0.1874,-0.1929,-0.1973,-0.202,-0.2069,-0.2122,-0.2144,-0.2169,-0.2196,-0.2249,-0.2265,-0.2249,-0.2317,-0.2319,-0.2298,-0.2292,-0.2275,-0.2288,-0.23,-0.23,-0.23,0,-0.1561,-0.1616,-0.168,-0.1759,-0.178,-0.1814,-0.1879,-0.1922,-0.1987,-0.2017,-0.2063,-0.2104,-0.2155,-0.2166,-0.2238,-0.2225,-0.2257,-0.2287,-0.2289,-0.2298,-0.231,-0.2301,-0.2293,-0.2295,-0.2305,-0.2305,-0.2305,0,-0.1526,-0.1617,-0.1668,-0.1698,-0.179,-0.1813,-0.1853,-0.1917,-0.1954,-0.2011,-0.2035,-0.2098,-0.2132,-0.218,-0.2237,-0.224,-0.2303,-0.2319,-0.2331,-0.2329,-0.2342,-0.2341,-0.2339,-0.2361,-0.2361,-0.2361,-0.2361,0,-0.153,-0.1568,-0.1653,-0.1684,-0.1729,-0.179,-0.1833,-0.1877,-0.1934,-0.1976,-0.2026,-0.2064,-0.2137,-0.2185,-0.223,-0.2283,-0.2298,-0.2325,-0.2337,-0.2321,-0.2317,-0.2343,-0.2344,-0.2361,-0.2361,-0.2361,-0.2361,0,-0.1499,-0.1558,-0.1617,-0.1699,-0.1721,-0.175,-0.1822,-0.1855,-0.1901,-0.1953,-0.1969,-0.2043,-0.2102,-0.2163,-0.2243,-0.2274,-0.2325,-0.2341,-0.2303,-0.231,-0.2318,-0.2316,-0.2333,-0.2339,-0.2355,-0.2355,-0.2355,0,-0.1498,-0.1528,-0.1614,-0.1645,-0.1683,-0.1732,-0.177,-0.1832,-0.1868,-0.1945,-0.1969,-0.2031,-0.2084,-0.2176,-0.2237,-0.2299,-0.2317,-0.2319,-0.2327,-0.231,-0.2318,-0.2316,-0.232,-0.2316,-0.2316,-0.2315,-0.2315,0,-0.1489,-0.1517,-0.1568,-0.1629,-0.1672,-0.1724,-0.1777,-0.18,-0.1873,-0.1912,-0.1972,-0.2013,-0.2095,-0.2156,-0.2226,-0.2268,-0.2304,-0.2312,-0.2318,-0.2303,-0.2279,-0.2293,-0.2296,-0.2312,-0.2312,-0.2312,-0.2312,-0.2312,-0.1474,-0.1504,-0.1569,-0.1624,-0.1671,-0.172,-0.1755,-0.1806,-0.1857,-0.1927,-0.1961,-0.2021,-0.2087,-0.2183,-0.2225,-0.2274,-0.2284,-0.2293,-0.2295,-0.2297,-0.2293,-0.2271,-0.2287,-0.2287,-0.2287,-0.2287,-0.2287,0,-0.1469,-0.1513,-0.1563,-0.1636,-0.168,-0.1709,-0.177,-0.1805,-0.1858,-0.1915,-0.1966,-0.2036,-0.2096,-0.2162,-0.2226,-0.2253,-0.2271,-0.2268,-0.2267,-0.2277,-0.2279,-0.2268,-0.2252,-0.2252,-0.2252,-0.2252,-0.2252,-0.2252,-0.1471,-0.1523,-0.1558,-0.1634,-0.1679,-0.1737,-0.177,-0.1816,-0.1862,-0.1937,-0.1987,-0.2029,-0.2091,-0.216,-0.2217,-0.2235,-0.2257,-0.2249,-0.2272,-0.2273,-0.2276,-0.2279,-0.2268,-0.2253,-0.2253,-0.2265,-0.2265,-0.2265]}]]